星链-4054 (STARLINK-4054 )

导读 | 豆包AI

STARLINK-4054是美国SpaceX公司星链(Starlink)星座的组网卫星,于2022年7月17日由猎鹰9号火箭发射。作为低轨通信卫星,它运行于近地轨道,采用氪基霍尔电推实现轨道调整,依托星链星座为全球提供高速低延迟宽带互联网服务,服役寿命约5-7年,末期将主动离轨坠入大气层销毁。

基本信息
目录编号:
53158
目录名称:
STARLINK-4054
国际标识:
2022-083AC
轨道中心:
EARTH
卫星名称:
星链-4054
卫星全名:
星链-4054 (STARLINK-4054 )
卫星状态:
在轨 (已飞行1383 天)
发射日期:
2022-07-17 UTC
国别 :
美国 (US)
星等 :
--
轨道信息
数据来源 国际轨道数据 AOE轨道数据
星历时间 2026-04-30T19:03:16+0800
9小时前
查看轨道信息
2026-04-27T08:00:00+0800
3天前
查看轨道信息
半长轴 6917.89km 6917.882km
偏心率 0.0001199 0.0001445
轨道倾角 53.217° 53.217°
近地点辐角 96.028° 94.341°
升交点赤经 291.711° 307.249°
平近点角 264.085° 178.167°
近地点 538.923km 538.745km
远地点 540.583km 540.745km
周期 95.438分钟 95.438分钟
每日圈数 15.088369 15.088396
详细信息
固有亮度:
5
最大亮度:
2.5
卫星平台:
Starlink v1.5
覆盖范围:
全球
运营商:
太空探索技术公司
运营商所在国:
美国
制造商(研发单位):
太空探索技术公司
制造商所在国:
美国
使用方式:
暂无
卫星简介
星链(Starlink)计划是由太空探索技术公司(SpaceX)提出的一个巨型低轨卫星互联网星座项目,计划在2019年至2024年间在太空搭建由约1.2万颗卫星组成的“星链”网络,其中1584颗将部署在地球上空550千米处的近地轨道,并从2020年开始工作。该卫星仍在工作。
2D轨道图
3D轨道图
轨道高度分析图
轨道倾角分析图
轨道综合分析图
查看轨道综合分析图